Time,TemperatureF,DewpointF,PressureIn,WindDirection,WindDirectionDegrees,WindSpeedMPH,WindSpeedGustMPH,Humidity,HourlyPrecipIn,Conditions,Clouds,dailyrainin,SoftwareType,DateUTC
2013-07-30 00:00:00,73.4,72.5,30.11,East,98,0.0,0.0,97,0.00,,,2.74,Wunderground v.1.15,2013-07-30 04:00:00,
2013-07-30 00:05:00,73.5,72.6,30.11,East,98,0.0,0.0,97,0.00,,,0.00,Wunderground v.1.15,2013-07-30 04:05:00,
2013-07-30 00:10:00,73.5,72.6,30.11,East,98,0.0,0.0,97,0.00,,,0.00,Wunderground v.1.15,2013-07-30 04:10:00,
2013-07-30 00:15:00,73.6,72.7,30.11,East,98,0.0,0.0,97,0.00,,,0.00,Wunderground v.1.15,2013-07-30 04:15:00,
2013-07-30 00:20:00,73.6,72.7,30.11,East,98,0.0,0.0,97,0.00,,,0.00,Wunderground v.1.15,2013-07-30 04:20:00,
2013-07-30 00:25:00,73.7,72.8,30.11,East,98,0.0,0.0,97,0.00,,,0.00,Wunderground v.1.15,2013-07-30 04:25:00,
2013-07-30 00:35:00,73.7,73.1,30.11,East,98,0.0,0.0,98,0.00,,,0.00,Wunderground v.1.15,2013-07-30 04:35:00,
2013-07-30 00:45:00,73.7,73.1,30.11,East,98,0.0,0.0,98,0.00,,,0.00,Wunderground v.1.15,2013-07-30 04:45:00,
2013-07-30 00:55:00,73.6,72.7,30.11,East,98,0.0,0.0,97,0.00,,,0.00,Wunderground v.1.15,2013-07-30 04:55:00,
2013-07-30 01:05:00,73.5,72.6,30.11,East,98,0.0,0.0,97,0.00,,,0.00,Wunderground v.1.15,2013-07-30 05:05:00,
2013-07-30 01:15:00,73.5,72.6,30.11,East,98,0.0,0.0,97,0.00,,,0.00,Wunderground v.1.15,2013-07-30 05:15:00,
2013-07-30 01:25:00,73.5,72.6,30.11,East,98,0.0,0.0,97,0.00,,,0.00,Wunderground v.1.15,2013-07-30 05:25:00,
2013-07-30 01:30:00,73.5,72.6,30.11,East,98,0.0,0.0,97,0.00,,,0.00,Wunderground v.1.15,2013-07-30 05:30:00,
2013-07-30 01:40:00,73.5,72.9,30.11,East,98,0.0,0.0,98,0.00,,,0.00,Wunderground v.1.15,2013-07-30 05:40:00,
2013-07-30 01:50:00,73.6,73.0,30.11,East,98,0.0,0.0,98,0.00,,,0.00,Wunderground v.1.15,2013-07-30 05:50:00,
2013-07-30 01:55:00,73.6,73.0,30.10,East,98,0.0,0.0,98,0.00,,,0.00,Wunderground v.1.15,2013-07-30 05:55:00,
2013-07-30 02:05:00,73.5,72.9,30.11,East,98,0.0,0.0,98,0.00,,,0.00,Wunderground v.1.15,2013-07-30 06:05:00,
2013-07-30 02:15:00,73.5,72.9,30.10,East,98,0.0,0.0,98,0.00,,,0.00,Wunderground v.1.15,2013-07-30 06:15:00,
2013-07-30 02:25:00,73.5,72.9,30.10,East,98,0.0,0.0,98,0.00,,,0.00,Wunderground v.1.15,2013-07-30 06:25:00,
2013-07-30 02:35:00,73.3,72.7,30.10,East,98,0.0,0.0,98,0.00,,,0.00,Wunderground v.1.15,2013-07-30 06:35:00,
2013-07-30 02:45:00,73.2,72.6,30.10,East,98,0.0,0.0,98,0.00,,,0.00,Wunderground v.1.15,2013-07-30 06:45:00,
2013-07-30 02:55:00,73.2,72.6,30.10,East,98,0.0,0.0,98,0.00,,,0.00,Wunderground v.1.15,2013-07-30 06:55:00,
2013-07-30 03:05:00,73.2,72.6,30.10,East,98,0.0,0.0,98,0.00,,,0.00,Wunderground v.1.15,2013-07-30 07:05:00,
2013-07-30 03:10:00,73.2,72.6,30.10,East,98,0.0,0.0,98,0.00,,,0.00,Wunderground v.1.15,2013-07-30 07:10:00,
2013-07-30 03:20:00,73.2,72.6,30.10,East,98,0.0,0.0,98,0.00,,,0.00,Wunderground v.1.15,2013-07-30 07:20:00,
2013-07-30 03:30:00,73.2,72.6,30.10,East,98,0.0,0.0,98,0.00,,,0.00,Wunderground v.1.15,2013-07-30 07:30:00,
2013-07-30 03:40:00,73.1,72.5,30.10,East,98,0.0,0.0,98,0.00,,,0.00,Wunderground v.1.15,2013-07-30 07:40:00,
2013-07-30 03:50:00,73.0,72.1,30.10,East,98,0.0,0.0,97,0.00,,,0.00,Wunderground v.1.15,2013-07-30 07:50:00,
2013-07-30 04:00:00,72.9,72.3,30.10,East,98,0.0,0.0,98,0.00,,,0.00,Wunderground v.1.15,2013-07-30 08:00:00,
2013-07-30 04:05:00,72.9,72.3,30.10,East,98,0.0,0.0,98,0.00,,,0.00,Wunderground v.1.15,2013-07-30 08:05:00,
2013-07-30 04:15:00,72.9,72.3,30.10,East,98,0.0,0.0,98,0.00,,,0.00,Wunderground v.1.15,2013-07-30 08:15:00,
2013-07-30 04:25:00,72.9,72.3,30.10,East,98,0.0,0.0,98,0.00,,,0.00,Wunderground v.1.15,2013-07-30 08:25:00,
2013-07-30 04:35:00,72.8,72.2,30.09,East,98,0.0,0.0,98,0.00,,,0.00,Wunderground v.1.15,2013-07-30 08:35:00,
2013-07-30 04:45:00,72.7,72.1,30.09,East,98,0.0,0.0,98,0.00,,,0.00,Wunderground v.1.15,2013-07-30 08:45:00,
2013-07-30 04:50:00,72.8,72.2,30.09,East,98,0.0,0.0,98,0.00,,,0.00,Wunderground v.1.15,2013-07-30 08:50:00,
2013-07-30 05:00:00,72.9,72.3,30.09,East,98,0.0,0.0,98,0.00,,,0.00,Wunderground v.1.15,2013-07-30 09:00:00,
2013-07-30 05:10:00,72.9,72.3,30.09,East,98,0.0,0.0,98,0.00,,,0.00,Wunderground v.1.15,2013-07-30 09:10:00,
2013-07-30 05:20:00,73.0,72.4,30.09,East,98,0.0,0.0,98,0.00,,,0.00,Wunderground v.1.15,2013-07-30 09:20:00,
2013-07-30 05:30:00,72.9,72.3,30.09,East,98,0.0,0.0,98,0.00,,,0.00,Wunderground v.1.15,2013-07-30 09:30:00,
2013-07-30 05:35:00,73.0,72.4,30.09,East,98,0.0,0.0,98,0.00,,,0.00,Wunderground v.1.15,2013-07-30 09:35:00,
2013-07-30 05:45:00,73.1,72.5,30.09,East,98,0.0,0.0,98,0.00,,,0.00,Wunderground v.1.15,2013-07-30 09:45:00,
2013-07-30 05:55:00,73.1,72.5,30.10,East,98,0.0,0.0,98,0.00,,,0.00,Wunderground v.1.15,2013-07-30 09:55:00,
2013-07-30 06:05:00,73.2,72.6,30.10,East,98,0.0,0.0,98,0.00,,,0.00,Wunderground v.1.15,2013-07-30 10:05:00,
2013-07-30 06:15:00,73.1,72.5,30.11,East,98,0.0,1.0,98,0.00,,,0.00,Wunderground v.1.15,2013-07-30 10:15:00,
2013-07-30 06:25:00,73.0,72.4,30.11,East,98,0.0,0.0,98,0.00,,,0.00,Wunderground v.1.15,2013-07-30 10:25:00,
2013-07-30 06:30:00,73.0,72.4,30.11,East,98,0.0,0.0,98,0.00,,,0.00,Wunderground v.1.15,2013-07-30 10:30:00,
2013-07-30 06:40:00,72.9,72.3,30.11,East,98,0.0,0.0,98,0.00,,,0.00,Wunderground v.1.15,2013-07-30 10:40:00,
2013-07-30 06:45:00,72.8,72.2,30.11,East,98,0.0,0.0,98,0.00,,,0.00,Wunderground v.1.15,2013-07-30 10:45:00,
2013-07-30 06:55:00,72.8,72.2,30.12,East,98,0.0,0.0,98,0.00,,,0.00,Wunderground v.1.15,2013-07-30 10:55:00,
2013-07-30 07:00:00,72.8,72.2,30.12,East,98,0.0,0.0,98,0.00,,,0.00,Wunderground v.1.15,2013-07-30 11:00:00,
2013-07-30 07:10:00,72.9,72.3,30.12,East,98,0.0,0.0,98,0.00,,,0.00,Wunderground v.1.15,2013-07-30 11:10:00,
2013-07-30 07:15:00,73.0,72.4,30.12,East,98,0.0,0.0,98,0.00,,,0.00,Wunderground v.1.15,2013-07-30 11:15:00,
2013-07-30 07:25:00,73.0,72.4,30.12,East,93,0.0,1.0,98,0.00,,,0.00,Wunderground v.1.15,2013-07-30 11:25:00,
2013-07-30 07:35:00,73.3,72.7,30.12,East,93,0.0,0.0,98,0.00,,,0.00,Wunderground v.1.15,2013-07-30 11:35:00,
2013-07-30 07:45:00,73.5,72.9,30.13,East,93,0.0,0.0,98,0.00,,,0.00,Wunderground v.1.15,2013-07-30 11:45:00,
2013-07-30 07:55:00,73.7,73.1,30.13,East,93,0.0,0.0,98,0.00,,,0.00,Wunderground v.1.15,2013-07-30 11:55:00,
2013-07-30 08:00:00,73.7,73.1,30.14,East,93,0.0,0.0,98,0.00,,,0.00,Wunderground v.1.15,2013-07-30 12:00:00,
2013-07-30 08:10:00,73.8,73.2,30.13,East,93,0.0,0.0,98,0.00,,,0.00,Wunderground v.1.15,2013-07-30 12:10:00,
2013-07-30 08:20:00,74.0,73.4,30.13,East,93,0.0,1.0,98,0.00,,,0.00,Wunderground v.1.15,2013-07-30 12:20:00,
2013-07-30 08:25:00,74.0,73.4,30.13,East,93,1.0,1.0,98,0.00,,,0.00,Wunderground v.1.15,2013-07-30 12:25:00,
2013-07-30 08:35:00,74.2,73.6,30.14,ENE,68,1.0,1.0,98,0.00,,,0.00,Wunderground v.1.15,2013-07-30 12:35:00,
2013-07-30 08:45:00,74.6,74.0,30.14,ENE,68,1.0,1.0,98,0.00,,,0.00,Wunderground v.1.15,2013-07-30 12:45:00,
2013-07-30 08:55:00,75.1,74.2,30.14,WNW,286,1.0,2.0,97,0.00,,,0.00,Wunderground v.1.15,2013-07-30 12:55:00,
2013-07-30 09:05:00,75.5,74.0,30.14,WSW,257,1.0,1.0,95,0.00,,,0.00,Wunderground v.1.15,2013-07-30 13:05:00,
2013-07-30 09:15:00,76.2,74.7,30.15,West,273,1.0,2.0,95,0.00,,,0.00,Wunderground v.1.15,2013-07-30 13:15:00,
2013-07-30 09:25:00,76.7,74.5,30.15,West,275,1.0,1.0,93,0.00,,,0.00,Wunderground v.1.15,2013-07-30 13:25:00,
2013-07-30 09:35:00,77.0,74.2,30.15,WNW,284,1.0,3.0,91,0.00,,,0.00,Wunderground v.1.15,2013-07-30 13:35:00,
2013-07-30 09:45:00,77.9,75.1,30.15,WNW,284,1.0,1.0,91,0.00,,,0.00,Wunderground v.1.15,2013-07-30 13:45:00,
2013-07-30 09:55:00,78.7,75.8,30.15,West,274,1.0,1.0,91,0.00,,,0.00,Wunderground v.1.15,2013-07-30 13:55:00,
2013-07-30 10:00:00,78.8,75.3,30.15,West,274,0.0,1.0,89,0.00,,,0.00,Wunderground v.1.15,2013-07-30 14:00:00,
2013-07-30 10:10:00,79.7,75.5,30.14,East,82,1.0,1.0,87,0.00,,,0.00,Wunderground v.1.15,2013-07-30 14:10:00,
2013-07-30 10:20:00,80.4,74.8,30.14,East,94,1.0,2.0,83,0.00,,,0.00,Wunderground v.1.15,2013-07-30 14:20:00,
2013-07-30 10:30:00,80.7,74.7,30.14,ESE,111,1.0,1.0,82,0.00,,,0.00,Wunderground v.1.15,2013-07-30 14:30:00,
2013-07-30 10:40:00,81.2,75.2,30.14,East,80,1.0,1.0,82,0.00,,,0.00,Wunderground v.1.15,2013-07-30 14:40:00,
2013-07-30 10:45:00,81.5,75.1,30.14,East,79,1.0,1.0,81,0.00,,,0.00,Wunderground v.1.15,2013-07-30 14:45:00,
2013-07-30 10:55:00,82.2,75.4,30.14,ENE,71,1.0,1.0,80,0.00,,,0.00,Wunderground v.1.15,2013-07-30 14:55:00,
2013-07-30 11:05:00,83.5,75.9,30.14,East,79,0.0,1.0,78,0.00,,,0.00,Wunderground v.1.15,2013-07-30 15:05:00,
2013-07-30 11:15:00,83.5,75.1,30.14,NNW,348,1.0,1.0,76,0.00,,,0.00,Wunderground v.1.15,2013-07-30 15:15:00,
2013-07-30 11:25:00,84.5,75.7,30.14,ENE,67,1.0,1.0,75,0.00,,,0.00,Wunderground v.1.15,2013-07-30 15:25:00,
2013-07-30 11:35:00,84.1,75.3,30.14,ENE,66,1.0,1.0,75,0.00,,,0.00,Wunderground v.1.15,2013-07-30 15:35:00,
2013-07-30 11:45:00,83.4,74.6,30.14,NE,37,1.0,1.0,75,0.00,,,0.00,Wunderground v.1.15,2013-07-30 15:45:00,
2013-07-30 11:55:00,83.9,75.1,30.14,ENE,78,1.0,1.0,75,0.00,,,0.00,Wunderground v.1.15,2013-07-30 15:55:00,
2013-07-30 12:00:00,84.1,75.3,30.14,SE,143,1.0,4.0,75,0.00,,,0.00,Wunderground v.1.15,2013-07-30 16:00:00,
2013-07-30 12:10:00,83.6,75.6,30.13,ESE,102,3.0,3.0,77,0.00,,,0.00,Wunderground v.1.15,2013-07-30 16:10:00,
2013-07-30 12:15:00,83.5,75.5,30.13,East,89,3.0,3.0,77,0.00,,,0.00,Wunderground v.1.15,2013-07-30 16:15:00,
2013-07-30 12:25:00,83.4,75.4,30.13,ENE,76,3.0,4.0,77,0.00,,,0.00,Wunderground v.1.15,2013-07-30 16:25:00,
2013-07-30 12:30:00,83.6,75.6,30.13,ESE,112,2.0,2.0,77,0.00,,,0.00,Wunderground v.1.15,2013-07-30 16:30:00,
2013-07-30 12:40:00,83.4,75.8,30.12,SE,130,2.0,5.0,78,0.00,,,0.00,Wunderground v.1.15,2013-07-30 16:40:00,
2013-07-30 12:50:00,83.6,75.6,30.12,ESE,123,2.0,2.0,77,0.00,,,0.00,Wunderground v.1.15,2013-07-30 16:50:00,
2013-07-30 13:00:00,84.2,75.8,30.12,SE,138,2.0,2.0,76,0.00,,,0.00,Wunderground v.1.15,2013-07-30 17:00:00,
2013-07-30 13:10:00,84.7,76.3,30.11,East,80,2.0,2.0,76,0.00,,,0.00,Wunderground v.1.15,2013-07-30 17:10:00,
2013-07-30 13:15:00,85.2,77.2,30.12,ENE,77,2.0,3.0,77,0.00,,,0.00,Wunderground v.1.15,2013-07-30 17:15:00,
2013-07-30 13:25:00,84.4,76.4,30.12,SE,138,3.0,5.0,77,0.00,,,0.00,Wunderground v.1.15,2013-07-30 17:25:00,
2013-07-30 13:35:00,84.9,76.5,30.11,NE,51,2.0,3.0,76,0.00,,,0.00,Wunderground v.1.15,2013-07-30 17:35:00,
2013-07-30 13:40:00,85.2,76.0,30.11,ENE,66,2.0,2.0,74,0.00,,,0.00,Wunderground v.1.15,2013-07-30 17:40:00,
2013-07-30 13:50:00,85.2,76.8,30.11,East,85,3.0,3.0,76,0.00,,,0.00,Wunderground v.1.15,2013-07-30 17:50:00,
2013-07-30 13:55:00,85.2,76.4,30.11,NE,55,2.0,3.0,75,0.00,,,0.00,Wunderground v.1.15,2013-07-30 17:55:00,
2013-07-30 14:05:00,84.8,76.0,30.10,NE,53,3.0,3.0,75,0.00,,,0.00,Wunderground v.1.15,2013-07-30 18:05:00,
2013-07-30 14:15:00,85.2,76.4,30.10,East,92,3.0,4.0,75,0.00,,,0.00,Wunderground v.1.15,2013-07-30 18:15:00,
2013-07-30 14:25:00,84.6,76.2,30.10,NE,56,3.0,3.0,76,0.00,,,0.00,Wunderground v.1.15,2013-07-30 18:25:00,
2013-07-30 14:35:00,84.5,76.5,30.10,ENE,57,3.0,4.0,77,0.00,,,0.00,Wunderground v.1.15,2013-07-30 18:35:00,
2013-07-30 14:40:00,84.0,75.6,30.10,ENE,57,3.0,3.0,76,0.00,,,0.00,Wunderground v.1.15,2013-07-30 18:40:00,
2013-07-30 14:50:00,83.7,77.6,30.10,ENE,57,2.0,2.0,82,0.00,,,0.00,Wunderground v.1.15,2013-07-30 18:50:00,
2013-07-30 14:55:00,83.7,77.2,30.10,East,90,2.0,2.0,81,0.00,,,0.00,Wunderground v.1.15,2013-07-30 18:55:00,
2013-07-30 15:05:00,83.6,76.0,30.09,ENE,78,3.0,3.0,78,0.00,,,0.00,Wunderground v.1.15,2013-07-30 19:05:00,
2013-07-30 15:15:00,83.8,75.8,30.09,ENE,69,3.0,3.0,77,0.00,,,0.00,Wunderground v.1.15,2013-07-30 19:15:00,
2013-07-30 15:20:00,84.5,75.7,30.09,SE,144,3.0,4.0,75,0.00,,,0.00,Wunderground v.1.15,2013-07-30 19:20:00,
2013-07-30 15:30:00,84.5,74.9,30.09,ENE,61,3.0,3.0,73,0.00,,,0.00,Wunderground v.1.15,2013-07-30 19:30:00,
2013-07-30 15:35:00,84.8,75.6,30.09,ENE,71,3.0,3.0,74,0.00,,,0.00,Wunderground v.1.15,2013-07-30 19:35:00,
2013-07-30 15:45:00,84.7,75.1,30.09,SE,134,2.0,4.0,73,0.00,,,0.00,Wunderground v.1.15,2013-07-30 19:45:00,
2013-07-30 15:55:00,84.7,75.5,30.08,ENE,67,3.0,3.0,74,0.00,,,0.00,Wunderground v.1.15,2013-07-30 19:55:00,
2013-07-30 16:05:00,84.2,74.2,30.08,ESE,113,3.0,4.0,72,0.00,,,0.00,Wunderground v.1.15,2013-07-30 20:05:00,
2013-07-30 16:15:00,84.4,75.2,30.08,East,95,3.0,3.0,74,0.00,,,0.00,Wunderground v.1.15,2013-07-30 20:15:00,
2013-07-30 16:25:00,84.8,76.0,30.08,ESE,115,3.0,5.0,75,0.00,,,0.00,Wunderground v.1.15,2013-07-30 20:25:00,
2013-07-30 16:30:00,84.5,75.3,30.08,ESE,121,3.0,3.0,74,0.00,,,0.00,Wunderground v.1.15,2013-07-30 20:30:00,
2013-07-30 16:40:00,84.1,74.9,30.08,SE,145,3.0,3.0,74,0.00,,,0.00,Wunderground v.1.15,2013-07-30 20:40:00,
2013-07-30 16:50:00,82.9,74.9,30.08,SE,136,2.0,5.0,77,0.00,,,0.00,Wunderground v.1.15,2013-07-30 20:50:00,
2013-07-30 17:00:00,82.5,75.7,30.08,SSE,152,2.0,5.0,80,0.00,,,0.00,Wunderground v.1.15,2013-07-30 21:00:00,
2013-07-30 17:10:00,82.3,75.1,30.08,SE,138,2.0,2.0,79,0.00,,,0.00,Wunderground v.1.15,2013-07-30 21:10:00,
2013-07-30 17:20:00,82.2,75.0,30.08,South,170,2.0,2.0,79,0.00,,,0.00,Wunderground v.1.15,2013-07-30 21:20:00,
2013-07-30 17:30:00,82.6,75.4,30.07,ESE,109,2.0,2.0,79,0.00,,,0.00,Wunderground v.1.15,2013-07-30 21:30:00,
2013-07-30 17:40:00,83.2,75.6,30.07,SE,135,3.0,3.0,78,0.00,,,0.00,Wunderground v.1.15,2013-07-30 21:40:00,
2013-07-30 17:50:00,83.9,75.5,30.08,East,98,2.0,5.0,76,0.00,,,0.00,Wunderground v.1.15,2013-07-30 21:50:00,
2013-07-30 18:00:00,83.7,75.7,30.08,East,88,3.0,3.0,77,0.00,,,0.00,Wunderground v.1.15,2013-07-30 22:00:00,
2013-07-30 18:10:00,83.8,75.4,30.07,ESE,119,2.0,2.0,76,0.00,,,0.00,Wunderground v.1.15,2013-07-30 22:10:00,
2013-07-30 18:20:00,83.4,75.8,30.07,South,169,2.0,2.0,78,0.00,,,0.00,Wunderground v.1.15,2013-07-30 22:20:00,
2013-07-30 18:25:00,83.3,75.3,30.07,South,171,1.0,2.0,77,0.00,,,0.00,Wunderground v.1.15,2013-07-30 22:25:00,
2013-07-30 18:35:00,83.2,75.2,30.07,South,170,1.0,2.0,77,0.00,,,0.00,Wunderground v.1.15,2013-07-30 22:35:00,
2013-07-30 18:45:00,82.9,75.7,30.08,SE,144,1.0,2.0,79,0.00,,,0.00,Wunderground v.1.15,2013-07-30 22:45:00,
2013-07-30 18:50:00,82.7,75.9,30.08,SE,137,1.0,2.0,80,0.00,,,0.00,Wunderground v.1.15,2013-07-30 22:50:00,
2013-07-30 19:00:00,82.2,75.4,30.08,SE,139,2.0,2.0,80,0.00,,,0.00,Wunderground v.1.15,2013-07-30 23:00:00,
2013-07-30 19:10:00,82.3,75.9,30.08,South,185,1.0,1.0,81,0.00,,,0.00,Wunderground v.1.15,2013-07-30 23:10:00,
2013-07-30 19:15:00,82.2,75.8,30.08,SSE,156,1.0,1.0,81,0.00,,,0.00,Wunderground v.1.15,2013-07-30 23:15:00,
2013-07-30 19:25:00,81.8,75.8,30.08,ESE,120,1.0,1.0,82,0.00,,,0.00,Wunderground v.1.15,2013-07-30 23:25:00,
2013-07-30 19:30:00,81.7,75.7,30.08,ESE,120,0.0,1.0,82,0.00,,,0.00,Wunderground v.1.15,2013-07-30 23:30:00,
2013-07-30 19:40:00,81.6,75.9,30.08,ESE,120,0.0,1.0,83,0.00,,,0.00,Wunderground v.1.15,2013-07-30 23:40:00,
2013-07-30 19:50:00,81.3,75.3,30.08,ESE,120,0.0,0.0,82,0.00,,,0.00,Wunderground v.1.15,2013-07-30 23:50:00,
2013-07-30 19:55:00,81.2,75.5,30.08,ESE,120,0.0,0.0,83,0.00,,,0.00,Wunderground v.1.15,2013-07-30 23:55:00,
2013-07-30 20:05:00,81.1,75.4,30.08,ESE,120,0.0,0.0,83,0.00,,,0.00,Wunderground v.1.15,2013-07-31 00:05:00,
2013-07-30 20:10:00,81.0,75.7,30.08,ESE,120,0.0,0.0,84,0.00,,,0.00,Wunderground v.1.15,2013-07-31 00:10:00,
2013-07-30 20:20:00,80.7,75.4,30.08,ESE,120,0.0,0.0,84,0.00,,,0.00,Wunderground v.1.15,2013-07-31 00:20:00,
2013-07-30 20:25:00,80.6,75.7,30.08,ESE,120,0.0,0.0,85,0.00,,,0.00,Wunderground v.1.15,2013-07-31 00:25:00,
2013-07-30 20:30:00,80.4,75.5,30.08,ESE,120,0.0,1.0,85,0.00,,,0.00,Wunderground v.1.15,2013-07-31 00:30:00,
2013-07-30 20:40:00,80.1,75.5,30.09,ESE,120,0.0,0.0,86,0.00,,,0.00,Wunderground v.1.15,2013-07-31 00:40:00,
2013-07-30 20:45:00,80.0,75.4,30.09,ESE,120,0.0,0.0,86,0.00,,,0.00,Wunderground v.1.15,2013-07-31 00:45:00,
2013-07-30 20:55:00,79.8,75.6,30.09,ESE,120,0.0,0.0,87,0.00,,,0.00,Wunderground v.1.15,2013-07-31 00:55:00,
2013-07-30 21:00:00,79.7,75.5,30.10,ESE,120,0.0,0.0,87,0.00,,,0.00,Wunderground v.1.15,2013-07-31 01:00:00,
2013-07-30 21:10:00,79.5,75.3,30.10,ESE,120,0.0,0.0,87,0.00,,,0.00,Wunderground v.1.15,2013-07-31 01:10:00,
2013-07-30 21:20:00,79.3,75.4,30.10,ESE,120,0.0,0.0,88,0.00,,,0.00,Wunderground v.1.15,2013-07-31 01:20:00,
2013-07-30 21:25:00,79.2,75.3,30.09,ESE,120,0.0,0.0,88,0.00,,,0.00,Wunderground v.1.15,2013-07-31 01:25:00,
2013-07-30 21:35:00,79.1,75.6,30.09,ESE,120,0.0,0.0,89,0.00,,,0.00,Wunderground v.1.15,2013-07-31 01:35:00,
2013-07-30 21:40:00,79.1,75.6,30.09,ESE,120,0.0,0.0,89,0.00,,,0.00,Wunderground v.1.15,2013-07-31 01:40:00,
2013-07-30 21:50:00,78.8,75.3,30.09,ESE,120,0.0,0.0,89,0.00,,,0.00,Wunderground v.1.15,2013-07-31 01:50:00,
2013-07-30 21:55:00,78.7,75.5,30.09,ESE,120,0.0,0.0,90,0.00,,,0.00,Wunderground v.1.15,2013-07-31 01:55:00,
2013-07-30 22:05:00,78.4,75.6,30.10,ESE,120,0.0,0.0,91,0.00,,,0.00,Wunderground v.1.15,2013-07-31 02:05:00,
2013-07-30 22:15:00,78.0,75.2,30.10,ESE,120,0.0,0.0,91,0.00,,,0.00,Wunderground v.1.15,2013-07-31 02:15:00,
2013-07-30 22:25:00,77.8,75.3,30.10,ESE,120,0.0,0.0,92,0.00,,,0.00,Wunderground v.1.15,2013-07-31 02:25:00,
2013-07-30 22:30:00,77.7,75.2,30.10,ESE,120,0.0,0.0,92,0.00,,,0.00,Wunderground v.1.15,2013-07-31 02:30:00,
2013-07-30 22:40:00,77.5,75.3,30.10,ESE,120,0.0,0.0,93,0.00,,,0.00,Wunderground v.1.15,2013-07-31 02:40:00,
2013-07-30 22:50:00,77.3,75.1,30.09,ESE,120,0.0,0.0,93,0.00,,,0.00,Wunderground v.1.15,2013-07-31 02:50:00,
2013-07-30 23:00:00,77.3,75.1,30.09,ESE,120,0.0,0.0,93,0.00,,,0.00,Wunderground v.1.15,2013-07-31 03:00:00,
2013-07-30 23:05:00,77.2,75.0,30.09,ESE,120,0.0,0.0,93,0.00,,,0.00,Wunderground v.1.15,2013-07-31 03:05:00,
2013-07-30 23:15:00,77.1,74.9,30.09,ESE,120,0.0,0.0,93,0.00,,,0.00,Wunderground v.1.15,2013-07-31 03:15:00,
2013-07-30 23:25:00,77.1,74.9,30.09,ESE,120,0.0,1.0,93,0.00,,,0.00,Wunderground v.1.15,2013-07-31 03:25:00,
2013-07-30 23:30:00,77.0,74.8,30.09,ESE,120,0.0,0.0,93,0.00,,,0.00,Wunderground v.1.15,2013-07-31 03:30:00,
2013-07-30 23:40:00,76.9,74.7,30.09,ESE,120,0.0,0.0,93,0.00,,,0.00,Wunderground v.1.15,2013-07-31 03:40:00,
2013-07-30 23:45:00,76.8,74.6,30.10,ESE,120,0.0,0.0,93,0.00,,,0.00,Wunderground v.1.15,2013-07-31 03:45:00,
2013-07-30 23:50:00,76.8,74.6,30.10,ESE,120,0.0,0.0,93,0.00,,,0.00,Wunderground v.1.15,2013-07-31 03:50:00,